This is the latest recevied weather packets stored in our database for station/object F4IEI-10. If no packets are shown the sender has not sent any weather packets the latest 10 day(s).
| Time | Temp. | Humidity | Pressure | Rain* | Wind** | Luminosity | Snow |
|---|---|---|---|---|---|---|---|
| 1777931927 | 12.78° C | 100% | 1012 hPa | - | - | - | - |
| 1777931027 | 12.78° C | 100% | 1012.2 hPa | - | - | - | - |
| 1777930121 | 12.78° C | 100% | 1012.3 hPa | - | - | - | - |
| 1777929220 | 12.78° C | 100% | 1012.6 hPa | - | - | - | - |
| 1777928320 | 12.22° C | 100% | 1012.8 hPa | - | - | - | - |
| 1777927420 | 12.78° C | 100% | 1012.8 hPa | - | - | - | - |
| 1777926520 | 12.78° C | 100% | 1012.6 hPa | - | - | - | - |
| 1777925620 | 12.22° C | 100% | 1012.5 hPa | - | - | - | - |
| 1777924727 | 12.22° C | 100% | 1012.5 hPa | - | - | - | - |
| 1777923820 | 12.22° C | 100% | 1012.4 hPa | - | - | - | - |
| 1777922920 | 12.22° C | 100% | 1012.4 hPa | - | - | - | - |
| 1777922020 | 12.22° C | 100% | 1012.3 hPa | - | - | - | - |
| 1777921120 | 12.22° C | 100% | 1012.2 hPa | - | - | - | - |
| 1777920227 | 12.22° C | 100% | 1012.2 hPa | - | - | - | - |
| 1777919320 | 13.89° C | 100% | 1012.2 hPa | - | - | - | - |
| 1777918420 | 15° C | 98% | 1012.2 hPa | - | - | - | - |
| 1777917520 | 15° C | 100% | 1012 hPa | - | - | - | - |
| 1777916620 | 15° C | 100% | 1012 hPa | - | - | - | - |
| 1777915720 | 15.56° C | 100% | 1011.9 hPa | - | - | - | - |
| 1777914820 | 16.11° C | 100% | 1011.8 hPa | - | - | - | - |
| 1777913920 | 16.11° C | 100% | 1011.9 hPa | - | - | - | - |
| 1777913021 | 15.56° C | 100% | 1011.8 hPa | - | - | - | - |
| 1777912121 | 15.56° C | 100% | 1011.9 hPa | - | - | - | - |
| 1777911222 | 17.22° C | 93% | 1011.8 hPa | - | - | - | - |
| 1777910321 | 18.33° C | 83% | 1011.7 hPa | - | - | - | - |
* Rain since midnight (hover to see other rain measurements)
** Current wind speed in m/s (hover to see current wind gust speed)